Flag for Canada Weather past 2 weeks in Welland, Ontario, Canada

Now
-2 °F

Frigid.


Feels Like: -21 °F
Forecast: -7 / 8 °F
Wind: 13 mph from West

Location: Port Colborne Airport

Current Time: Feb 27, 2015 at 8:36:41 AM

Latest Report: Feb 27, 2015 at 8:00 AM


Visibility: N/A

Pressure: 30.48 "Hg

Humidity: 75%

Dew point: -8 °F

Location of WellandLocation

Historic Weather in Welland — Graph

°F

Welland temperature yesterday

Maximum temperature yesterday: 15 °F (at 3:00 PM)
Minimum temperature yesterday: 5 °F (at 2:00 AM)
Average temperature yesterday: 11 °F

Past Weeks' High & Low Weather Summary

 TemperatureHumidityPressure
High22 °F (Feb 21, 5:00 PM)91% (Feb 14, 4:00 AM)30.62 "Hg (Feb 14, 4:00 AM)
Low-13 °F (Feb 16, 6:00 AM)33% (Feb 19, 4:00 PM)29.55 "Hg (Feb 14, 1:00 PM)
Average6 °F69%30.12 "Hg
* Reported Feb 12 7:00 AM — Feb 27 7:00 AM, Welland, Weather by CustomWeather, © 2015

Note: Actual official high and low records may vary slightly from our data, if they occured in-between our weather recording intervals... More about our weather records

Advertising

Welland weather history for previous 24 hours

 ConditionsComfort  
Time TempWeatherWind HumidityBarometerVisibility
7:00 AM
Fri, Feb 27
-3 °FFrigid.5 mph73%30.45 "HgN/A
6:00 AM0 °FFrigid.8 mph69%30.42 "HgN/A
5:00 AM1 °FFrigid.6 mph65%30.39 "HgN/A
4:00 AM3 °FFrigid.9 mph63%30.36 "HgN/A
3:00 AM6 °FFrigid.10 mph64%30.35 "HgN/A
2:00 AM7 °FFrigid.9 mph61%30.34 "HgN/A
1:00 AM8 °FFrigid.9 mph71%30.32 "HgN/A
12:00 AM9 °FFrigid.9 mph73%30.29 "HgN/A
11:00 PM
Thu, Feb 26
10 °FFrigid.7 mph80%30.28 "HgN/A
10:00 PM10 °FFrigid.5 mph84%30.27 "HgN/A
9:00 PM10 °FFrigid.5 mph83%30.26 "HgN/A
8:00 PM11 °FCold.6 mph81%30.23 "HgN/A
7:00 PM12 °FCold.7 mph76%30.20 "HgN/A
6:00 PM12 °FCold.12 mph77%30.17 "HgN/A
5:00 PM14 °FCold.10 mph83%30.14 "HgN/A
4:00 PM15 °FCold.6 mph80%30.13 "HgN/A
3:00 PM15 °FCold.6 mph75%30.11 "HgN/A
2:00 PM14 °FCold.8 mph72%30.11 "HgN/A
1:00 PM15 °FCold.7 mph60%30.11 "HgN/A
12:00 PM14 °FCold.8 mph59%30.12 "HgN/A
11:00 AM12 °FCold.9 mph63%30.12 "HgN/A
10:00 AM11 °FCold.9 mph71%30.12 "HgN/A
9:00 AM10 °FCold.9 mph75%30.12 "HgN/A
8:00 AM10 °FFrigid.7 mph76%30.11 "HgN/A
Weather by CustomWeather, © 2015

See weather overviewHow to use our weather pages